FW8067 Weather Reports


time (UTC)temp
C
wind
direction
speed
KPH
gust
KPH
rain 1hr
cm
rain 24hr
cm
rain mn
cm
humidity
%
barometer
mb
20260507170300 17 225 0.0 0.0 0.00 2.44 0.61 42 996.3
20260507165801 17 225 0.0 0.0 0.00 2.44 0.61 44 996.4
20260507164801 16 225 0.0 0.0 0.00 2.44 0.61 42 996.3
20260507164301 16 225 0.0 0.0 0.00 2.44 0.61 44 996.7
20260507163801 16 248 0.0 0.0 0.00 2.44 0.61 46 996.6
20260507162801 16 225 0.0 0.0 0.00 2.44 0.61 48 996.8
20260507161801 15 225 0.0 0.0 0.00 2.44 0.61 47 996.7
20260507160800 15 270 0.0 0.0 0.00 2.44 0.61 49 996.8
20260507160302 15 225 0.0 0.0 0.00 2.44 0.61 48 996.9
20260507155801 15 248 0.0 0.0 0.00 2.44 0.61 50 996.9
20260507155301 15 225 0.0 0.0 0.00 2.44 0.61 52 996.5
20260507154801 15 203 0.0 0.0 0.00 2.44 0.61 50 996.9
20260507154301 14 248 0.0 0.0 0.00 2.44 0.61 52 996.8
20260507153801 14 225 0.0 0.0 0.00 2.44 0.61 53 996.6
20260507153302 14 225 0.0 0.0 0.00 2.44 0.61 53 996.7
20260507152801 14 225 0.0 0.0 0.00 2.44 0.61 54 996.8
20260507152301 14 225 0.0 0.0 0.00 2.44 0.61 53 997.2
20260507151801 14 225 0.0 0.0 0.00 2.44 0.61 56 997.2
20260507151300 14 225 0.0 0.0 0.00 2.44 0.61 54 997.1
20260507150801 13 225 0.0 0.0 0.00 2.44 0.61 55 997.2
20260507150259 14 225 0.0 0.0 0.00 2.44 0.61 55 997.1
20260507145756 14 225 0.0 0.0 0.00 2.44 0.61 56 997.2
20260507145253 13 225 0.0 0.0 0.00 2.44 0.61 54 997.3
20260507144750 13 225 0.0 0.0 0.00 2.44 0.61 56 997.4
20260507144247 13 248 0.0 0.0 0.00 2.44 0.61 54 997.5
20260507143241 13 248 0.0 0.0 0.00 2.44 0.61 58 997.5
20260507142739 13 248 0.0 0.0 0.00 2.44 0.61 56 997.6
20260507142236 13 225 0.0 0.0 0.00 2.44 0.61 59 997.5
20260507141729 13 225 0.0 0.0 0.00 2.44 0.61 58 997.5
20260507141230 13 225 0.0 0.0 0.00 2.44 0.61 58 997.4
20260507140730 13 248 0.0 0.0 0.00 2.44 0.61 59 996.9
20260507140230 13 225 0.0 0.0 0.00 2.44 0.61 58 996.9
20260507135728 13 225 0.0 0.0 0.00 2.44 0.61 59 996.8
20260507135229 13 203 0.0 0.0 0.00 2.44 0.61 59 996.7
20260507134730 13 225 0.0 0.0 0.00 2.44 0.61 61 996.9
20260507134231 13 225 0.0 0.0 0.00 2.44 0.61 63 996.9
20260507133729 13 248 0.0 0.0 0.00 2.44 0.61 62 997.2
20260507133229 13 203 0.0 0.0 0.00 2.44 0.61 63 996.8
20260507132729 13 203 0.0 0.0 0.00 2.44 0.61 62 996.9
20260507131730 13 248 0.0 0.0 0.00 2.44 0.61 61 997.0
20260507131229 13 225 0.0 0.0 0.00 2.44 0.61 61 996.8
20260507130729 13 248 0.0 0.0 0.00 2.44 0.61 61 996.6
20260507125728 13 225 0.0 0.0 0.00 2.44 0.61 63 996.5
20260507125229 13 225 0.0 0.0 0.00 2.44 0.61 65 995.9
20260507124729 13 248 0.0 0.0 0.00 2.44 0.61 63 995.6
20260507124229 13 248 0.0 0.0 0.00 2.44 0.61 63 995.2
20260507123729 13 248 0.0 0.0 0.00 2.44 0.61 65 995.4
20260507123229 13 225 0.0 0.0 0.00 2.44 0.61 64 995.2
20260507122230 13 225 0.0 0.0 0.00 2.44 0.61 62 995.5
20260507121729 13 225 0.0 0.0 0.00 2.44 0.61 64 995.3
20260507120729 13 225 0.0 0.0 0.00 2.44 0.61 63 995.6
20260507120229 13 225 0.0 0.0 0.00 2.44 0.61 65 995.9
20260507115229 13 225 0.0 0.0 0.00 2.44 0.61 64 995.6
20260507114729 13 225 0.0 0.0 0.00 2.44 0.61 64 995.7
20260507113726 13 225 0.0 0.0 0.00 2.44 0.61 67 995.5
20260507113224 13 225 0.0 0.0 0.00 2.44 0.61 67 995.4
20260507112722 13 203 0.0 0.0 0.00 2.44 0.61 67 995.3
20260507112217 13 203 0.0 0.0 0.00 2.44 0.61 64 995.0
20260507111716 13 225 0.0 0.0 0.00 2.44 0.61 64 994.9
20260507111212 13 225 0.0 0.0 0.00 2.44 0.61 64 995.2
20260507110702 13 225 0.0 0.0 0.00 2.44 0.61 65 995.0
20260507110201 13 203 0.0 0.0 0.00 2.44 0.61 65 995.5
20260507105701 13 225 0.0 0.0 0.00 2.44 0.61 65 995.3
20260507105203 13 225 0.0 0.0 0.00 2.44 0.61 66 995.4
20260507104201 13 225 0.0 0.0 0.00 2.44 0.61 66 995.6
20260507103702 13 203 0.0 0.0 0.00 2.44 0.61 69 995.6
20260507103201 13 225 0.0 0.0 0.00 2.44 0.61 71 995.5
20260507102201 13 225 0.0 0.0 0.00 2.44 0.61 69 995.7
20260507101701 13 225 0.0 0.0 0.00 2.44 0.61 67 995.3
20260507101202 14 203 0.0 0.0 0.00 2.44 0.61 67 994.9
20260507100702 14 203 0.0 0.0 0.00 2.44 0.61 67 994.7
20260507095701 13 203 0.0 0.0 0.00 2.44 0.61 70 994.4
20260507095201 14 225 0.0 0.0 0.00 2.44 0.61 68 994.2
20260507094701 14 203 0.0 0.0 0.00 2.44 0.61 68 994.5
20260507094201 14 180 0.0 0.0 0.00 2.44 0.61 68 994.4
20260507093702 14 203 0.0 0.0 0.00 2.44 0.61 68 994.2
20260507093202 14 203 0.0 0.0 0.00 2.44 0.61 68 993.9
20260507092701 14 203 0.0 0.0 0.00 2.44 0.61 69 994.3
20260507092201 14 203 0.0 0.0 0.00 2.44 0.61 68 994.5
20260507091701 14 203 0.0 0.0 0.00 2.44 0.61 69 994.3
20260507091202 14 180 0.0 0.0 0.00 2.44 0.61 68 994.0
20260507090701 14 180 0.0 0.0 0.00 2.44 0.61 68 994.2
20260507090201 14 203 0.0 0.0 0.00 2.44 0.61 68 994.2
20260507085700 14 203 0.0 0.0 0.00 2.44 0.61 68 993.7
20260507085200 15 180 0.0 0.0 0.00 2.44 0.61 67 994.2
20260507084157 15 203 0.0 0.0 0.00 2.44 0.61 68 994.1
20260507083654 15 180 0.0 0.0 0.00 2.44 0.61 69 994.3
20260507083151 14 203 0.0 0.0 0.00 2.44 0.61 70 994.4
20260507082648 15 203 0.0 0.0 0.00 2.44 0.61 70 994.3
20260507082146 15 180 0.0 0.0 0.00 2.44 0.61 68 993.8
20260507081642 15 180 0.0 0.0 0.00 2.44 0.61 66 994.0
20260507081139 15 203 0.0 0.0 0.00 2.44 0.61 63 994.2
20260507080134 16 203 0.0 0.0 0.00 2.44 0.61 62 994.4
20260507075630 16 225 0.0 0.0 0.00 2.44 0.61 65 994.5
20260507075130 16 180 0.0 0.0 0.00 2.44 0.61 69 994.2
20260507074629 16 225 0.0 0.0 0.00 2.44 0.61 70 994.1
20260507074129 17 203 0.0 0.0 0.00 2.44 0.61 69 994.0
20260507073629 17 225 0.0 0.0 0.00 2.44 0.61 71 994.0
20260507073128 17 225 0.0 0.0 0.00 2.44 0.61 77 994.3
20260507072630 17 225 0.0 0.0 0.00 2.44 0.61 81 994.1
20260507071629 17 225 0.0 0.0 0.00 2.44 0.61 85 993.8
20260507071129 18 203 0.0 0.0 0.00 2.44 0.61 86 993.7
20260507070159 18 225 0.0 0.0 0.00 2.44 0.61 89 993.5
20260507065629 18 225 0.0 0.0 0.00 2.44 0.61 90 993.5
20260507064629 18 225 0.0 0.0 0.00 2.44 0.61 90 992.8
20260507064129 18 225 0.0 0.0 0.00 2.44 0.61 91 993.1
20260507063630 18 203 0.0 0.0 0.00 2.44 0.61 91 993.1
20260507063133 18 203 0.0 0.0 0.00 2.44 0.61 92 992.6
20260507062629 18 225 0.0 0.0 0.00 2.44 0.61 93 992.8
20260507062129 18 225 0.0 0.0 0.00 2.44 0.61 93 992.8
20260507061629 18 225 0.0 0.0 0.00 2.44 0.61 93 992.6
20260507061130 18 225 0.0 0.0 0.00 2.44 0.61 95 992.6
20260507060630 18 225 0.0 0.0 0.00 2.44 0.61 95 992.7
20260507055630 18 225 0.0 0.0 0.00 2.44 0.61 95 992.9
20260507055129 18 248 0.0 0.0 0.00 2.44 0.61 95 993.2
20260507054629 18 248 0.0 0.0 0.00 2.44 0.61 95 993.0
20260507054129 18 225 0.0 0.0 0.00 2.44 0.61 95 992.4
20260507053630 18 225 0.0 0.0 0.00 2.44 0.61 95 992.4
20260507053130 17 225 0.0 0.0 0.00 2.44 0.61 95 991.8
20260507052630 17 248 0.0 0.0 0.00 2.44 0.61 95 991.6
20260507052130 17 225 0.0 0.0 0.00 2.44 0.61 94 991.6
20260507051130 17 225 0.0 0.0 0.00 2.44 0.61 94 991.5
20260507050630 17 225 0.0 0.0 0.00 2.44 0.61 94 991.7
20260507050129 17 203 0.0 0.0 0.00 2.44 0.61 94 991.8
20260507045129 17 203 0.0 0.0 0.00 2.44 0.61 93 991.3
20260507044628 17 225 0.0 0.0 0.00 2.44 0.61 93 991.4
20260507044130 17 225 0.0 0.0 0.00 2.44 0.61 93 991.2
20260507043130 17 225 0.0 0.0 0.03 2.44 0.61 94 991.5
20260507042629 16 225 0.0 0.0 0.03 2.44 0.61 95 991.6
20260507042128 16 225 0.0 0.0 0.03 2.44 0.61 96 991.6
20260507041629 17 248 0.0 0.0 0.03 2.44 0.61 96 991.6
20260507041130 17 225 0.0 0.0 0.15 2.44 0.61 97 991.6
20260507035629 16 225 0.0 0.0 0.66 1.83 0.61 98 990.9
20260507035129 16 203 0.0 0.0 0.69 1.83 0.61 98 991.1
20260507034630 16 225 0.0 0.0 0.71 1.83 0.61 98 991.4
20260507034139 16 203 0.0 0.0 0.99 1.83 0.61 97 991.4
20260507033630 16 203 0.0 0.0 1.12 1.83 0.61 97 991.6
20260507033130 16 203 0.0 0.0 1.17 1.83 0.56 97 991.6
20260507032130 16 225 0.0 0.0 1.63 1.83 0.56 97 991.9
20260507031629 16 180 0.0 0.0 1.75 1.83 0.56 97 992.1
20260507031130 16 135 0.0 0.0 2.06 1.83 0.36 97 991.6
20260507030630 16 158 0.0 0.0 2.01 1.83 0.18 97 991.6
20260507030129 16 158 0.0 0.0 1.88 1.83 0.05 97 991.7
20260507025629 16 180 0.0 0.0 1.78 0.00 1.78 97 991.8
20260507024630 16 180 0.0 0.0 1.70 0.00 1.68 97 991.5
20260507024129 16 180 0.0 0.0 1.45 0.00 1.45 97 991.9
20260507023628 16 203 0.0 0.0 1.32 0.00 1.30 97 992.3
20260507023128 16 203 0.0 0.0 1.22 0.00 1.19 96 992.2
20260507022627 16 203 0.0 0.0 1.12 0.00 1.12 96 992.0
20260507022124 16 203 0.0 0.0 0.79 0.00 0.79 96 991.7
20260507021621 17 203 0.0 0.0 0.66 0.00 0.61 94 991.4
20260507021120 17 248 0.0 0.0 0.13 0.00 0.13 93 991.2
20260507020615 18 203 0.0 0.0 0.00 0.00 0.00 86 991.5
20260507015601 22 270 0.0 0.0 0.00 0.00 0.00 76 991.7
20260507015101 23 293 0.0 0.0 0.00 0.00 0.00 86 990.9
20260507014602 23 293 0.0 0.0 0.00 0.00 0.00 87 990.8
20260507014101 22 338 0.0 0.0 0.00 0.00 0.00 88 990.2
20260507013601 22 0 0.0 0.0 0.00 0.00 0.00 88 989.6
20260507013101 22 338 0.0 0.0 0.00 0.00 0.00 89 990.0
20260507011601 20 0 0.0 0.0 0.00 0.00 0.00 91 989.8
20260507010052 21 0 0.0 0.0 0.00 0.00 0.00 89 990.5
20260507005549 21 0 0.0 0.0 0.00 0.00 0.00 88 990.4
20260507005046 21 0 0.0 0.0 0.00 0.00 0.00 88 990.6
20260507004543 21 0 0.0 0.0 0.00 0.00 0.00 88 990.6
20260507003529 21 0 0.0 0.0 0.00 0.00 0.00 87 990.3
20260507003030 21 0 0.0 0.0 0.00 0.00 0.00 86 990.2
20260507002529 22 0 0.0 0.0 0.00 0.00 0.00 85 990.3
20260507002028 22 0 0.0 0.0 0.00 0.00 0.00 84 990.2
20260507001529 22 0 0.0 0.0 0.00 0.00 0.00 85 990.4
20260507000529 22 0 0.0 0.0 0.00 0.00 0.00 85 990.6
20260506235529 22 0 0.0 0.0 0.00 0.00 0.00 83 990.6
20260506235028 22 0 0.0 0.0 0.00 0.00 0.00 82 990.4
20260506234530 23 0 0.0 0.0 0.00 0.00 0.00 82 990.5
20260506234029 23 0 0.0 0.0 0.00 0.00 0.00 81 990.8
20260506233529 23 0 0.0 0.0 0.00 0.00 0.00 81 990.7
20260506232029 24 338 0.0 0.0 0.00 0.00 0.00 79 990.7
20260506231530 24 338 0.0 0.0 0.00 0.00 0.00 79 990.7
20260506231029 23 338 0.0 0.0 0.00 0.00 0.00 80 990.7
20260506230529 23 338 0.0 0.0 0.00 0.00 0.00 82 990.6
20260506230029 23 338 0.0 0.0 0.00 0.00 0.00 82 990.7
20260506225529 23 338 0.0 0.0 0.00 0.00 0.00 82 990.5
20260506225030 23 338 0.0 0.0 0.00 0.00 0.00 81 990.5
20260506224530 23 338 0.0 0.0 0.00 0.00 0.00 81 990.4
20260506224031 23 338 0.0 0.0 0.00 0.00 0.00 79 990.4
20260506223529 24 338 0.0 0.0 0.00 0.00 0.00 79 990.0
20260506223029 24 338 0.0 0.0 0.00 0.00 0.00 79 990.0
20260506222528 25 338 0.0 0.0 0.00 0.00 0.00 77 989.9
20260506222029 25 338 0.0 0.0 0.00 0.00 0.00 77 989.9
20260506221531 25 338 0.0 0.0 0.00 0.00 0.00 75 989.6
20260506221029 26 338 0.0 0.0 0.00 0.00 0.00 73 989.6
20260506220529 26 338 0.0 0.0 0.00 0.00 0.00 72 989.6
20260506215530 26 338 0.0 0.0 0.00 0.00 0.00 71 989.5
20260506215031 27 338 0.0 0.0 0.00 0.00 0.00 70 989.4
20260506214529 27 338 0.0 0.0 0.00 0.00 0.00 70 989.5
20260506214030 27 338 0.0 0.0 0.00 0.00 0.00 70 989.2
20260506213529 27 338 0.0 0.0 0.00 0.00 0.00 70 988.9
20260506213029 27 338 0.0 0.0 0.00 0.00 0.00 69 988.8
20260506212030 27 338 0.0 0.0 0.00 0.00 0.00 68 988.7
20260506211029 27 0 0.0 0.0 0.00 0.00 0.00 67 988.2
20260506210030 28 0 0.0 0.0 0.00 0.00 0.00 66 988.6
20260506205530 28 338 0.0 0.0 0.00 0.00 0.00 66 988.5
20260506205029 28 338 0.0 0.0 0.00 0.00 0.00 65 988.5
20260506204529 28 0 0.0 0.0 0.00 0.00 0.00 65 988.7
20260506204028 28 0 0.0 0.0 0.00 0.00 0.00 64 988.2
20260506203531 28 0 0.0 0.0 0.00 0.00 0.00 64 988.1
20260506202529 28 23 0.0 0.0 0.00 0.00 0.00 62 988.4
20260506201529 29 0 0.0 0.0 0.00 0.00 0.00 60 988.3
20260506200525 30 338 0.0 0.0 0.00 0.00 0.00 59 988.3
20260506200022 30 0 0.0 0.0 0.00 0.00 0.00 59 988.5
20260506194513 30 338 0.0 0.0 0.00 0.00 0.00 59 988.6
20260506194002 30 0 0.0 0.0 0.00 0.00 0.00 58 988.5
20260506193502 30 0 0.0 0.0 0.00 0.00 0.00 58 988.9
20260506193001 31 338 0.0 0.0 0.00 0.00 0.00 56 989.0
20260506192501 31 0 0.0 0.0 0.00 0.00 0.00 56 989.2
20260506192001 31 338 0.0 0.0 0.00 0.00 0.00 57 989.3
20260506191501 30 338 0.0 0.0 0.00 0.00 0.00 57 989.4
20260506190502 30 338 0.0 0.0 0.00 0.00 0.00 58 989.5
20260506190002 30 338 0.0 0.0 0.00 0.00 0.00 59 989.8
20260506185502 30 315 0.0 0.0 0.00 0.00 0.00 59 989.8
20260506184501 30 0 0.0 0.0 0.00 0.00 0.00 58 989.9
20260506184001 30 0 0.0 0.0 0.00 0.00 0.00 59 989.9
20260506183501 30 0 0.0 0.0 0.00 0.00 0.00 59 989.9
20260506183001 30 338 0.0 0.0 0.00 0.00 0.00 59 990.2
20260506182501 30 338 0.0 0.0 0.00 0.00 0.00 58 990.2
20260506182002 30 0 0.0 0.0 0.00 0.00 0.00 58 990.2
20260506181502 30 315 0.0 0.0 0.00 0.00 0.00 61 990.1
20260506180501 30 0 0.0 0.0 0.00 0.00 0.00 59 990.2
20260506175501 31 315 0.0 0.0 0.00 0.00 0.00 57 990.3
20260506175002 31 0 0.0 0.0 0.00 0.00 0.00 57 990.1
20260506174502 30 0 0.0 0.0 0.00 0.00 0.00 59 990.3
20260506174001 30 0 0.0 0.0 0.00 0.00 0.00 60 990.2
20260506173501 29 0 0.0 0.0 0.00 0.00 0.00 61 990.3
20260506173001 29 0 0.0 0.0 0.00 0.00 0.00 62 990.5
20260506172501 30 338 0.0 0.0 0.00 0.00 0.00 61 990.5
20260506172001 30 338 0.0 0.0 0.00 0.00 0.00 61 990.7
20260506171501 30 0 0.0 0.0 0.00 0.00 0.00 60 990.7
20260506171001 30 338 0.0 0.0 0.00 0.00 0.00 60 990.9